TimeAKST,TemperatureF,Dew PointF,Humidity,Sea Level PressureIn,VisibilityMPH,Wind Direction,Wind SpeedMPH,Gust SpeedMPH,PrecipitationIn,Events,Conditions,WindDirDegrees,DateUTC
12:53 AM,41.0,41.0,100,29.57,3.0,North,16.1,21.9,0.02,Rain,Light Rain,10,2013-12-11 09:53:00
1:00 AM,41.0,41.0,100,29.57,3.0,NNE,21.9,31.1,0.00,Rain,Light Rain,20,2013-12-11 10:00:00
1:53 AM,41.0,41.0,100,29.55,3.0,North,10.4,24.2,0.04,Rain,Light Rain,10,2013-12-11 10:53:00
2:53 AM,39.9,39.9,100,29.55,3.0,North,18.4,28.8,N/A,Rain,Light Rain,10,2013-12-11 11:53:00
3:36 AM,39.2,39.2,100,29.54,6.0,North,11.5,-,0.01,Rain,Light Rain,10,2013-12-11 12:36:00
3:53 AM,39.9,39.9,100,29.53,9.0,North,10.4,21.9,0.01,,Overcast,10,2013-12-11 12:53:00
4:53 AM,39.0,39.0,100,29.52,10.0,NNW,8.1,19.6,0.00,,Overcast,340,2013-12-11 13:53:00
5:03 AM,39.2,39.2,100,29.51,10.0,NNW,12.7,17.3,N/A,,Overcast,340,2013-12-11 14:03:00
5:25 AM,39.2,39.2,100,29.51,10.0,NW,17.3,24.2,N/A,,Overcast,310,2013-12-11 14:25:00
5:32 AM,39.2,39.2,100,29.51,10.0,NW,11.5,24.2,N/A,,Overcast,310,2013-12-11 14:32:00
5:53 AM,39.0,39.0,100,29.51,10.0,NW,16.1,21.9,N/A,,Overcast,310,2013-12-11 14:53:00
6:53 AM,36.0,33.1,89,29.51,10.0,WNW,16.1,31.1,N/A,,Scattered Clouds,300,2013-12-11 15:53:00
7:53 AM,36.0,33.1,89,29.49,10.0,NW,18.4,26.5,N/A,,Scattered Clouds,310,2013-12-11 16:53:00
8:53 AM,34.0,26.1,73,29.51,10.0,WNW,19.6,25.3,N/A,,Mostly Cloudy,290,2013-12-11 17:53:00
9:53 AM,34.0,26.1,73,29.51,10.0,WNW,23.0,-,N/A,,Mostly Cloudy,300,2013-12-11 18:53:00
10:53 AM,34.0,26.1,73,29.51,10.0,WNW,23.0,-,N/A,,Mostly Cloudy,300,2013-12-11 19:53:00
11:57 AM,35.6,26.6,70,29.51,10.0,WNW,20.7,-,N/A,,Scattered Clouds,300,2013-12-11 20:57:00
12:53 PM,35.1,21.9,59,29.51,10.0,NW,11.5,-,N/A,,Scattered Clouds,310,2013-12-11 21:53:00
1:53 PM,35.1,21.9,59,29.51,10.0,NW,17.3,-,N/A,,Scattered Clouds,310,2013-12-11 22:53:00
2:53 PM,35.1,21.9,59,29.50,10.0,WNW,12.7,26.5,N/A,,Mostly Cloudy,290,2013-12-11 23:53:00
3:53 PM,35.1,23.0,61,29.49,10.0,WNW,9.2,16.1,N/A,,Mostly Cloudy,300,2013-12-12 00:53:00
4:53 PM,35.1,23.0,61,29.49,10.0,WNW,6.9,-,N/A,,Mostly Cloudy,300,2013-12-12 01:53:00
5:53 PM,35.1,24.1,64,29.47,10.0,Variable,3.5,-,N/A,,Mostly Cloudy,0,2013-12-12 02:53:00
6:53 PM,36.0,25.0,64,29.47,10.0,West,8.1,-,N/A,,Mostly Cloudy,270,2013-12-12 03:53:00
7:53 PM,36.0,25.0,64,29.46,10.0,West,9.2,-,N/A,,Mostly Cloudy,280,2013-12-12 04:53:00
8:53 PM,35.1,26.1,70,29.44,10.0,WNW,6.9,-,N/A,,Mostly Cloudy,290,2013-12-12 05:53:00
9:53 PM,34.0,24.1,67,29.44,10.0,NW,10.4,-,N/A,,Mostly Cloudy,310,2013-12-12 06:53:00
10:53 PM,32.0,23.0,69,29.43,10.0,NW,8.1,-,N/A,,Scattered Clouds,320,2013-12-12 07:53:00
11:53 PM,32.0,21.0,64,29.43,10.0,NW,11.5,17.3,N/A,,Mostly Cloudy,310,2013-12-12 08:53:00